DECAYED
Showing default

FLOCK 3S 3, 43788 (Decayed)

Orbit data source: Space-Track

FLOCK 3S 3, 43788 was a payload satellite owned by Planet (US) in LEO that was launched on Mon, 03 Dec 2018 UTC via an FALCON 9 launch vehicle from the Air Force Western Test Range (AFWTR). Payload-class satellites include a variety of spacecraft equipped with specific instruments for various scientific and technological missions. These include communications satellites like Starlink; space stations such as the ISS; scientific satellites like the Hubble; Earth observation satellites from companies like Planet Labs, Umbra, and HawkEye 360; GPS; miniature CubeSats for education and research; and military/defense satellites.

Not visible in the next 10 days
Identifier
43788, 2018-099AG
Orbit
Decayed
Country
Flag of USUS
Related business
Manufacturer
Planet
Mission
Decayed Commercial Imaging
Bus & Motor
CUBESAT 3U, Unknown motor
Mass
4.7 kg wet, 4.7 kg dry
Launch date (UTC)
2018-12-03 (7 years ago)
Launch vehicle
FALCON 9
Launch site
Air Force Western Test Range (AFWTR)
Object type
Payload
Rocket body
Debris
Shape & HBR
Box + 2 Pan, 1.0 m
Radar Cross Section
0.108 m², Small (<0.1 m²)

Expand to show TLE details & history
Last TLE update: 5 months ago

TLE from 5 months ago
0 FLOCK 3S 3
1 43788U 18099AG  25346.95351008  .10562357  24883-5  18535-2 0  9991
2 43788  97.4142  62.2079 0008564 286.1872  73.8481 16.32750198386080
Epoch: 2025-12-12T22:53Z
TLE epoch observation values (Epoch: 2025-12-12T22:53:03.270Z)
Latitude
-0.00003°
Longitude
-2.94346°
Altitude
186.841 km
Speed
7.795 km/s
True Right ascension
04h 08m 49s
True Declination
0° 00' 00"
Sunlit
Object was in full shadow at epoch
Visualization orbit readout
Latitude
Unknown
Longitude
Unknown
Altitude
Unknown
Speed
Unknown
Apparent Right ascension
Unknown
Apparent Declination
Unknown
Sunlit
N/A
Visualization observer readout
Local Sidereal Time
09:22:27
Azimuth
Unknown
Elevation
Unknown
Doppler factor
Unknown
Orbital elements
Apogee altitude
187.595 km
Perigee altitude
176.359 km
Semi-major axis
6,560.114 km
Eccentricity
0.00086
Inclination
97.4142°
RAAN
62.2079°
Arg. of periapsis
286.1872°
True anomaly
73.94239°
Mean anomaly
73.8481°
Eccentric anomaly
73.89524°
Mean motion
4.08485 °/min
Orbital period
88.13 mins
BSTAR
0.0018535
Loading maneuver chart data...
Computing Atmospheric mass density...
Loading historical data...
Loading historical data...
Loading historical data...
Loading historical data...
Loading historical data...
Loading historical data...
Loading historical data...

Documentation

Showing up to 5 results
|